Tracking 29892 objects as of 21-Nov-2024
HD Live streaming from Space Station
objects crossing your sky now

FENGYUN 1C DEB

Track FENGYUN 1C DEB now!
10-day predictions


NORAD ID: 31206
Int'l Code: 1999-025BKL
Perigee: 714.0 km
Apogee: 830.1 km
Inclination: 98.9 °
Period: 100.1 minutes
Semi major axis: 7143 km
RCS: 0.0036 m2 (small)
Launch date: May 10, 1999
Source: People's Republic of China (PRC)
Launch site: Taiyaun Space Center, China (TSC)

Note: This is SATELLITE DEBRIS
Your satellite tracking list
Your tracking list is empty




NASA's NSSDC Master Catalog

Two Line Element Set (TLE):
1 31206U 99025BKL 24324.42033021  .00002853  00000-0  92161-3 0  9997
2 31206  98.8657 213.6336 0081286  70.7999 290.1962 14.38061798922590
Source of the keplerian elements: AFSPC